Время (UTC), дата Ветер
(°,м/с) 
Видим.   Явления Облачность Т
(°С)
Тd
(°С)
f(%) Тe
(°С)
Pmin
(гПа)
dP
(гПа)
Po
(мм)
O2
(г/м3)
Тmin Tmax R s Состояние
почвы
00 01.08.10 090 (В) >10 км    ясно 
+21.2 +5.6 36 +21  1015.6  -0.7  723  269           
03 01.08.10 070 (В) >10 км    ясно 
+20.9 +6.2 38 +21  1015.7  -0.1  723  270           
06 01.08.10 090 (В) >10 км    ясно 
+29 +6.4 24 +29  1014.1  -0.2  723  262  +19.7         
09 01.08.10 110 (В) 11  >10 км    ясно 
+34.1 +6.8 18 +34  1012.9  -0.3  723  258           
12 01.08.10 100 (В) 12  >10 км    ясно 
+34.8 +4.3 15 +35  1012  -0.8  722  257           
15 01.08.10 100 (В) 10  >10 км    ясно 
+33.2 +4.6 17 +33  1011.4  -0.8  722  258           
18 01.08.10 100 (В) >10 км    ясно 
+27.8 +6.7 26 +28  1012.6  0.3  722  263    +35.6       
21 01.08.10 100 (В) >10 км    ясно 
+24.8 +6.8 32 +25  1012.5  -0.6  721  265           
00 02.08.10 100 (В) >10 км    ясно 
+21.3 +7.8 42 +21  1012.5  -0.5  721  268           
03 02.08.10 070 (В) >10 км    ясно 
+20.1 +7.4 44 +20  1013.4  0.5  721  269           
06 02.08.10 100 (В) >10 км    ясно 
+29.1 +6.7 24 +29  1011.5  -0.2  721  261  +19.7         
09 02.08.10 110 (В) 12  >10 км    ясно 
+32.8 +7.1 20 +33  1010.3  -0.6  721  258           
12 02.08.10 110 (В) 12  >10 км    ясно 
+35 +4.6 15 +35  1008.6  -1.3  720  256           
15 02.08.10 080 (В) >10 км    ясно 
+33.8 +3.2 15 +34  1008.1  -0.6  719  257           
18 02.08.10 100 (В) >10 км    ясно 
+27.6 +5.6 25 +28  1009.5  0.3  720  262    +35.8       
21 02.08.10 110 (В) >10 км    ясно 
+21.6 +7.3 40 +22  1010.7  0.1  720  267           
00 03.08.10 100 (В) >10 км    ясно 
+19.5 +8.6 49 +20  1010.4  -0.6  719  269           
03 03.08.10 140 (ЮВ) >10 км    ясно 
+19.8 +9.9 53 +23  1010.3  719  268           
06 03.08.10 100 (В) >10 км    ясно 
+27.6 +10.6 35 +30  1009.2  0.3  719  261  +17.7         
09 03.08.10 090 (В) >10 км    ясно 
+32.8 +8.4 22 +33  1007.3  -1  719  257           
12 03.08.10 090 (В) >10 км    3/3 600 м 
[Cu hum]
+34.9 +4.5 15 +35  1006.1  -0.9  718  256           
15 03.08.10 090 (В) >10 км    4/0 средняя, верхняя 
[Ac trans|Ci fib]
+33.8 +3 14 +34  1005.9  -0.3  718  257           
18 03.08.10 140 (ЮВ) >10 км    3/0 верхняя 
[Ci fib]
+25.4 +4.8 27 +25  1007.9  0.5  718  264    +36.2       
21 03.08.10 110 (В) >10 км    ясно 
+25 +4.5 27 +25  1007.8  -0.1  718  264           
00 04.08.10 160 (Ю) >10 км    ясно 
+21.8 +6.8 38 +22  1008.1  -0.2  718  267           
03 04.08.10 100 (В) >10 км    ясно 
+19.2 +8 48 +20  1008.8  0.2  718  269           
06 04.08.10 100 (В) >10 км    ясно 
+27.3 +6.7 27 +27  1007.8  0.3  718  262  +19.1         
09 04.08.10 090 (В) >10 км    ясно 
+32.6 +12 28 +37  1006.6  -0.2  718  256           
12 04.08.10 090 (В) 10  >10 км    ясно 
+35.5 +6.1 16 +36  1005.2  -1  717  255           
15 04.08.10 100 (В) >10 км    ясно 
+33.9 +10.9 25 +37  1004.8  -0.5  717  255           
18 04.08.10 150 (ЮВ) >10 км    ясно 
+28 +6.4 25 +28  1006.8  0.9  718  261    +35.9       
21 04.08.10 080 (В) >10 км    ясно 
+25.4 +8.6 34 +26  1007.2  718  263           
00 05.08.10 040 (СВ) >10 км    ясно 
+19.2 +10 55 +22  1008.2  -0.1  718  268           
03 05.08.10 070 (В) >10 км    ясно верхняя 
[Ci fib]
+18.9 +11.7 63 +23  1008.9  0.7  718  268           
06 05.08.10 080 (В) >10 км    ясно 
+28 +9.3 31 +29  1008.1  0.7  719  261  +17.8         
09 05.08.10 090 (В) 10  >10 км    ясно 
+33.6 +9.2 22 +35  1007.5  0.3  719  256           
12 05.08.10 090 (В) >10 км    ясно 
+35.1 +3.8 14 +35  1007.5  0.1  719  256           
15 05.08.10 100 (В) >10 км    ясно 
+34.2 +6.1 17 +34  1007.3  -0.3  719  256           
18 05.08.10 080 (В) >10 км    ясно 
+25.9 +7 30 +26  1010  1.3  720  264    +36.4       
21 05.08.10 100 (В) >10 км    ясно 
+25 +5.9 29 +25  1010.7  0.5  720  265           
00 06.08.10 110 (В) >10 км    ясно 
+20.8 +7.1 41 +21  1011.4  720  268           
03 06.08.10 070 (В) >10 км    3/0 верхняя 
[Ci fib]
+19 +8.6 51 +19  1012.5  0.7  721  270           
06 06.08.10 100 (В) >10 км    ясно 
+28 +8.5 29 +28  1012.1  1.2  722  262  +18.8         
09 06.08.10 080 (В) >10 км    ясно 
+34.1 +5.1 16 +34  1011.4  0.2  722  258           
12 06.08.10 100 (В) >10 км    ясно 
+36.1 +5.8 15 +36  1010.4  -0.7  721  256           
15 06.08.10 100 (В) >10 км    ясно 
+34.2 +7.7 20 +34  1010.6  721  257           
18 06.08.10 120 (ЮВ) >10 км    ясно 
+28 +9.5 31 +29  1012.2  0.6  722  262    +36.8       
21 06.08.10 110 (В) >10 км    ясно 
+24.7 +6.7 32 +25  1012.8  722  266           
00 07.08.10 100 (В) >10 км    ясно 
+21.4 +9.5 47 +23  1013.3  -0.1  722  268           
03 07.08.10 120 (ЮВ) >10 км    ясно 
+21.4 +8.5 44 +21  1013.5  0.2  722  268           
06 07.08.10 100 (В) >10 км    ясно 
+29.2 +8.2 27 +29  1013.4  1.2  723  262  +20.2         
09 07.08.10 110 (В) >10 км    1/0 средняя 
[Ac trans]
+34.2 +5.1 16 +34  1012.5  -0.1  722  258           
12 07.08.10 100 (В) >10 км    ясно 
+36.2 +6.2 16 +36  1011.4  -0.7  722  256           
15 07.08.10 100 (В) >10 км    ясно 
+34.4 +5.8 17 +34  1010.8  -0.9  721  257           
18 07.08.10 100 (В) >10 км    1/0 средняя 
[As trans]
+26.2 +4.8 25 +26  1012.7  0.5  722  265    +37.1       
21 07.08.10 090 (В) >10 км    ясно 
+22.9 +9.4 42 +24  1013  -0.1  722  267           
00 08.08.10 070 (В) >10 км    ясно 
+23.7 +6.1 32 +24  1012.4  -0.6  721  266           
03 08.08.10 120 (ЮВ) >10 км    ясно 
+22.4 +7.4 38 +22  1012.4  -0.2  721  267           
06 08.08.10 100 (В) >10 км    ясно 
+30.5 +9.4 27 +32  1010.9  721  260  +22.2         
09 08.08.10 100 (В) >10 км    ясно 
+34.7 +9.5 21 +36  1010.3  721  256           
12 08.08.10 090 (В) >10 км    4/4 600 м 
[Cu hum]
+35 +10.6 23 +38  1009.1  -1  720  255           
15 08.08.10 080 (В) >10 км    ясно 
+34.2 +10.3 23 +37  1009.2  -0.1  720  256           
18 08.08.10 050 (СВ) >10 км    ясно 
+28.6 +9.8 31 +30  1010.5  0.3  720  261    +33.6       
21 08.08.10 060 (СВ) >10 км    ясно 
+24.7 +7 32 +25  1011  -0.1  720  265           
00 09.08.10 060 (СВ) >10 км    ясно 
+23.3 +6.4 34 +23  1010.5  -0.7  720  266           
03 09.08.10 130 (ЮВ) >10 км    ясно 
+21.2 +11.1 52 +25  1011  0.1  720  267           
06 09.08.10 080 (В) >10 км    ясно 
+29.2 +11.4 33 +33  1009.7  0.2  720  260  +21         
09 09.08.10 080 (В) >10 км    ясно 
+35.1 +6.5 17 +35  1008.8  720  256           
12 09.08.10 080 (В) >10 км    4/4 600 м 
[Cu hum]
+35.8 +9.9 21 +38  1007.7  -1  719  254           
15 09.08.10 090 (В) >10 км    1/1 600 м 
[Cu hum]
+34.3 +9.4 22 +36  1007.1  -0.8  719  256           
18 09.08.10 070 (В) >10 км    ясно 
+28.6 +9.4 30 +30  1008.4  0.4  719  261    +36.7       
21 09.08.10 080 (В) >10 км    ясно 
+24.6 +12.4 47 +30  1009.5  0.4  719  263           
00 10.08.10 050 (СВ) >10 км    ясно 
+21 +15.5 71 +32  1010.1  719  266           
03 10.08.10 090 (В) >10 км    ясно 
+19.4 +16 81 +32  1010.9  0.5  720  267           
06 10.08.10 080 (В) >10 км    ясно 
+28.8 +11.8 35 +33  1009.7  0.4  720  260  +19.2         
09 10.08.10 090 (В) 10  >10 км    ясно 
+33.8 +11 25 +37  1008.9  720  256           
12 10.08.10 090 (В) 10  >10 км    1/1 600 м 
[Cu hum]
+35.9 +5.9 16 +36  1008  -0.6  719  255           
15 10.08.10 100 (В) >10 км    3/3 1000 м 
+34.9 +4.8 15 +35  1007.9  -0.3  719  256           
18 10.08.10 090 (В) >10 км    3/0 средняя 
[Ac trans]
+26.4 +9 33 +27  1010  0.8  720  263    +37.2       
21 10.08.10 090 (В) >10 км    ясно 
+25.3 +9.7 37 +27  1010.2  -0.1  720  264           
00 11.08.10 110 (В) >10 км    ясно 
+22.4 +8.8 42 +23  1011.1  0.3  720  267           
03 11.08.10 070 (В) >10 км    3/0 средняя 
[Ac trans]
+20.4 +10.5 53 +23  1011.7  0.4  720  268           
06 11.08.10 090 (В) >10 км    1/0 верхняя 
[Ci fib]
+26.3 +14.3 48 +35  1011.3  0.9  721  262  +20.3         
09 11.08.10 130 (ЮВ) >10 км    1/0 верхняя 
[Ci fib]
+31.6 +11.5 29 +36  1010.3  -0.5  721  258           
12 11.08.10 120 (ЮВ) >10 км    ясно 
+33.9 +16.4 35 +46  1008.9  -0.8  720  255           
15 11.08.10 700 () >10 км    ясно 
+33.7 +15.5 34 +44  1008.6  -0.3  720  255           
18 11.08.10 110 (В) >10 км    4/0 верхняя 
[Ci fib]
+28.8 +15.7 45 +40  1010    720  259    +34.6       
21 11.08.10 100 (В) >10 км    4/0 верхняя 
[Ci fib]
+26.2 +10.5 37 +29  1010.9  0.2  720  263           
00 12.08.10 070 (В) >10 км    4/0 верхняя 
[Ci fib]
+22.6 +12.8 54 +29  1011.4  720  266           
03 12.08.10 170 (Ю) >10 км    5/0 верхняя 
[Ci fib]
+21.7 +11.5 52 +26  1011.9  0.3  721  267           
06 12.08.10 120 (ЮВ) >10 км    4/0 средняя, верхняя 
[Ac trans|Ci sp]
+29.1 +16.4 46 +41  1010.7  0.2  721  259  +21.4         
09 12.08.10 140 (ЮВ) >10 км    4/0 средняя, верхняя 
[Ac trans|Ci sp]
+32.3 +17.3 41 +46  1010.5  0.3  721  256           
12 12.08.10 120 (ЮВ) >10 км    1/1 600 м 
[Cu hum]
+35.7 +16 31 +47  1009.4  -0.5  721  253           
15 12.08.10 120 (ЮВ) >10 км    9/4 1000 м кучево-дожд., средняя, верхняя 
[Cb cap|Ac As|Ci fib]
+33.2 +16.5 37 +46  1009.8  721  255           
18 12.08.10 260 (З) >10 км  гроза без осадков{ливн. осадки}  10/4 1000 м кучево-дожд., средняя 
[Cb cap|Ac und]
+23.6 +15.5 60 +34  1013.9  2.3  722  265    +35.9       
21 12.08.10 120 (ЮВ) >10 км  {гроза}  10/3 1000 м кучево-дожд., средняя, верхняя 
[Cb cap|Ac trans|Ci sp]
+23.8 +14.8 57 +33  1015.1  -0.4  722  265           
00 13.08.10 060 (СВ) >10 км  {гроза}  6/3 1000 м кучево-дожд., средняя, верхняя 
[Cb cap|Ac trans|Ci sp]
+21.8 +14.3 62 +30  1014.3  0.4  722  267           
03 13.08.10 310 (СЗ) >10 км    9/4 1000 м кучево-дожд., средняя 
[Cb cap|Ac As]
+22 +16 69 +34  1014.8  0.6  723  266           
06 13.08.10 090 (В) >10 км    8/3 1000 м кучево-дожд., средняя 
[Cb calv|Ac trans]
+25.5 +17.7 62 +40  1013.7  -0.5  722  262  +20.4    0.0     
09 13.08.10 100 (В) >10 км    5/0 средняя 
[Ac trans]
+31.7 +7.8 23 +32  1013.7  0.9  723  260           
12 13.08.10 080 (В) >10 км    3/0 средняя 
[Ac trans]
+33.2 +6.4 19 +33  1013.3  -0.2  723  259           
15 13.08.10 070 (В) >10 км    3/0 средняя 
[Ac trans]
+32.8 +7.4 21 +33  1013  -0.3  723  259           
18 13.08.10 110 (В) >10 км    3/0 средняя 
[Ac trans]
+26.9 +12 40 +32  1014.1  0.1  723  263  +33.9         
21 13.08.10 050 (СВ) >10 км    3/0 средняя 
[Ac trans]
+24.2 +11.2 44 +28  1014.5  -0.1  723  265           
00 14.08.10 100 (В) >10 км    ясно 
+21 +11.1 53 +24  1015.1  0.1  723  268           
03 14.08.10 070 (В) >10 км    1/0 средняя 
[Ac trans]
+20.9 +10.5 51 +23  1015.1  723  269           
06 14.08.10 100 (В) >10 км    ясно 
+28.8 +7.6 26 +29  1013.7  -0.1  723  262  +20.7         
09 14.08.10 110 (В) >10 км    1/0 средняя 
[Ac trans]
+32.7 +9 23 +33  1012.8  -0.2  723  258           
12 14.08.10 070 (В) >10 км    1/0 средняя 
[Ac trans]
+34.7 +10.4 23 +37  1011.7  -0.8  722  256           
15 14.08.10 070 (В) >10 км    3/3 1000 м кучево-дожд., средняя 
[Cb calv|Ac trans]
+32.3 +8.6 23 +32  1011.8  -0.2  722  259           
18 14.08.10 040 (СВ) >10 км    8/4 1000 м кучево-дожд., средняя 
[Cb calv|Ac trans]
+29.2 +6.8 24 +29  1013.4  723  262    +34.9       
21 14.08.10 050 (СВ) >10 км  в посл. час гроза{ливн. осадки}  10/6 1000 м кучево-дожд., средняя 
[Cb calv|Ac und]
+26.7 +10.5 36 +29  1013  -0.8  722  263           
00 15.08.10 050 (СВ) >10 км  {гроза, ливн. осадки}  5/3 1000 м кучево-дожд., средняя 
[Cb calv|Ac trans]
+23.5 +11.2 46 +27  1012.5  -1  721  265           
03 15.08.10 040 (СВ) >10 км    9/3 1000 м кучево-дожд., средняя 
[Cb calv|Ac trans]
+23.8 +11.9 47 +28  1013.4  722  265           
06 15.08.10 060 (СВ) >10 км    8/0 средняя 
[Ac trans]
+30.2 +14.7 39 +39  1011.9  -0.4  722  259  +23.3    0.0     
09 15.08.10 050 (СВ) >10 км    6/0 средняя 
[Ac trans]
+34.3 +11.2 25 +38  1011  -0.2  722  256           
12 15.08.10 110 (В) >10 км    6/6 600 м 
[Cu hum]
+35.3 +9.8 21 +37  1010.5  -0.4  721  256           
15 15.08.10 040 (СВ) >10 км    6/3 1000 м кучево-дожд., средняя 
[Cb calv|Ac trans]
+31.3 +10.2 27 +34  1011.1  -0.1  721  259           
18 15.08.10 240 (ЮЗ) >10 км  гроза, ливневой дождь  10/6 1000 м кучево-дожд., средняя 
[Cb calv|Ac und]
+24.5 +12.1 46 +29  1013.5  1.3  722  265    +35.9       
21 15.08.10 220 (ЮЗ) >10 км  {гроза}  10/6 1000 м кучево-дожд., средняя 
[Cb calv|Ac und]
+23.1 +12 50 +28  1015  1.1  723  266           
00 16.08.10 340 (С) >10 км  {гроза}  8/0 средняя 
[Ac trans]
+22.5 +10.3 46 +25  1014  -1  722  267           
03 16.08.10 030 (СВ) >10 км    8/0 средняя 
[Ac trans]
+22.6 +7.1 37 +23  1014.1  722  268           
06 16.08.10 080 (В) >10 км    5/0 средняя, верхняя 
[Ac trans|Ci fib]
+26.1 +11.3 40 +30  1014.3  0.9  723  264  +22.3         
09 16.08.10 050 (СВ) >10 км    8/0 средняя, верхняя 
[Ac trans|Ci fib]
+30.8 +14.1 36 +39  1013.4  -0.1  723  259           
12 16.08.10 050 (СВ) >10 км    4/0 верхняя 
[Ci fib]
+32.6 +12.7 30 +38  1011.7  -1.3  722  257           
15 16.08.10 070 (В) >10 км    8/0 верхняя 
[Ci fib]
+31.3 +11.2 29 +35  1011.6  -0.3  722  259           
18 16.08.10 020 (С) >10 км    4/0 средняя, верхняя 
[Ac trans|Ci fib]
+25.9 +7.3 31 +26  1012.3  -0.3  721  264    +33.6       
21 16.08.10 050 (СВ) >10 км    3/0 средняя 
[Ac trans]
+23.8 +5.5 31 +24  1013.4  0.7  722  267           
00 17.08.10 050 (СВ) >10 км    8/0 средняя 
[Ac trans]
+22.4 +8.5 41 +22  1012.9  -0.8  721  267           
03 17.08.10 070 (В) >10 км    10/0 средняя, верхняя 
[Ac trans|Ci fib]
+20.7 +12 57 +25  1013  721  268           
06 17.08.10 130 (ЮВ) >10 км    10/0 средняя, верхняя 
[Ac trans|Ci fib]
+23.8 +17.2 67 +38  1012.6  0.2  721  264  +20.5         
09 17.08.10 020 (С) 70  0400 м    3/3 100 м средняя 
[Cu hum|Ac trans]
+17.8   1011.9  -0.2  721             
12 17.08.10 080 (В) >10 км    8/3 600 м средняя, верхняя 
[Cu hum|Ac trans|Ci fib]
+29.9 +12.4 34 +35  1009.8  -1.6  720  259           
15 17.08.10 140 (ЮВ) >10 км    8/3 1000 м кучево-дожд., средняя, верхняя 
[Cb calv|Ac trans|Ci fib]
+26.8 +14.9 48 +36  1010  -0.3  720  261           
18 17.08.10 180 (Ю) >10 км    8/3 1000 м кучево-дожд., средняя 
[Cb calv|Ac trans]
+21.6 +14 62 +30  1010.9  0.1  720  266    +31.2       
21 17.08.10 010 (С) >10 км    10/4 1000 м кучево-дожд., средняя 
[Cb calv|Ac und]
+21 +12.9 60 +27  1010.2  -0.8  719  267           
00 18.08.10 030 (СВ) >10 км    8/4 1000 м кучево-дожд., средняя 
[Cb calv|Ac trans]
+21.6 +12.7 57 +28  1008  -1.6  718  266           
03 18.08.10 090 (В) >10 км    10/4 1000 м кучево-дожд., средняя 
[Cb calv|Ac und]
+20.4 +14.6 69 +30  1008.8  0.2  718  266           
06 18.08.10 130 (ЮВ) >10 км    9/3 1000 м кучево-дожд., средняя 
[Cb calv|Ac trans]
+23.9 +15.9 61 +35  1007.7  -0.4  718  263  +20         
09 18.08.10 080 (В) >10 км  {ливн. осадки}  10/5 1000 м кучево-дожд., средняя 
[Cb calv|Ac und]
+24.7 +15.1 55 +35  1007.6  718  262           
12 18.08.10 050 (СВ) >10 км  {ливн. осадки}  10/5 1000 м кучево-дожд., средняя 
[Cb calv|Ac und]
+23.9 +14.5 56 +33  1007.6  -0.1  718  263           
15 18.08.10 060 (СВ) >10 км    8/3 1000 м кучево-дожд., средняя 
[Cb calv|Ac trans]
+25.6 +14.2 49 +34  1006.4  -0.9  717  261           
18 18.08.10 130 (ЮВ) >10 км    6/3 1000 м кучево-дожд., средняя 
[Cb calv|Ac trans]
+21.2 +15.7 71 +32  1007.6  0.4  718  265    +26  0.0     
21 18.08.10 230 (ЮЗ) >10 км    4/1 1000 м кучево-дожд., средняя 
[Cb calv|Ac trans]
+18.9 +16.4 85 +33  1008  718  267           
00 19.08.10 260 (З) >10 км    4/1 1000 м кучево-дожд., средняя 
[Cb calv|Ac trans]
+19.3 +16.6 84 +33  1007.9  718  266           
03 19.08.10 260 (З) >10 км    9/4 1000 м кучево-дожд., средняя 
[Cb calv|Ac trans]
+20.5 +18.4 88 +37  1007.9  0.3  718  265           
06 19.08.10 280 (З) 28  >10 км  в посл. час ливневой дождь  6/3 1000 м кучево-дожд., средняя, верхняя 
[Cb cap|Ac trans|Ci sp]
+24.4 +17.7 66 +40  1008.3  0.9  718  262  +17.4         
09 19.08.10 260 (З) >10 км    6/3 600 м кучево-дожд., средняя, верхняя 
[Cb cap|Ac trans|Ci sp]
+29.5 +17.4 48 +44  1007.6  0.1  719  257           
12 19.08.10 270 (З) >10 км    3/1 600 м средняя, верхняя 
[Cu hum|Ac trans|Ci sp]
+29.6 +14.3 39 +38  1007  -0.5  718  258           
15 19.08.10 270 (З) >10 км    6/1 1000 м кучево-дожд., средняя, верхняя 
[Cb cap|Ac trans|Cc]
+27 +14.3 46 +36  1007.5    718  260           
18 19.08.10 280 (З) >10 км    8/3 1000 м кучево-дожд., средняя, верхняя 
[Cb cap|Ac trans|Ci sp]
+23.2 +15.9 64 +35  1009.7  1.5  719  264    +30.6  0.0     
21 19.08.10 280 (З) >10 км    4/1 1000 м кучево-дожд., средняя, верхняя 
[Cb cap|Ac trans|Ci sp]
+21.1 +15.8 72 +32  1010.4  0.3  719  266           
00 20.08.10 280 (З) >10 км    3/1 1000 м кучево-дожд., средняя 
[Cb cap|Ac trans]
+20.2 +17.1 82 +34  1010.5  0.1  720  266           
03 20.08.10 270 (З) >10 км    3/0 средняя 
[Ac trans]
+20 +15.7 76 +31  1011.5  0.8  720  267           
06 20.08.10 280 (З) >10 км  {дождь}  3/0 средняя 
[Ac trans]
+24.2 +12.8 49 +30      721  264  +19.6         
09 20.08.10 270 (З) >10 км    6/4 600 м средняя 
[Cu hum|Ac trans]
+28 +11 35 +31  1010.4  -0.6  720  261           
12 20.08.10 280 (З) >10 км    9/5 600 м кучево-дожд., средняя 
[Cb calv|Ac trans]
+25.6 +13.1 46 +32  1009.8  -0.9  720  263           
15 20.08.10 300 (СЗ) >10 км    8/4 1000 м кучево-дожд., средняя 
[Cb calv|Ac trans]
+22.4 +15.8 66 +34  1010.3  720  265           
18 20.08.10 250 (З) >10 км  слаб. ливневой дождь  10/6 800 м кучево-дожд., средняя 
[Cb cap|Ac und]
+17.1 +14.9 87 +27  1013.6  2.2  721  270    +28.2       
21 20.08.10 240 (ЮЗ) >10 км  {ливн. осадки}  4/0 средняя 
[Ac trans]
+17 +14.4 85 +26  1013.9  0.2  721  271           
00 21.08.10 280 (З) >10 км    3/0 средняя 
[Ac trans]
+17.1 +13.7 80 +24  1013.5  -0.3  721  271           
03 21.08.10 250 (З) >10 км    3/0 средняя 
[Ac trans]
+16.6 +14.3 86 +24  1013.6  721  271           
06 21.08.10 250 (З) >10 км    3/3 600 м кучево-дожд., средняя 
[Cb calv|Ac trans]
+20 +14.5 71 +29  1013.9  0.9  722  268  +16.4       
09 21.08.10 280 (З) >10 км    10/5 600 м кучево-дожд., средняя 
[Cb calv|Ac und]
+21.6 +9.8 47 +23  1014.6  0.8  722  268           
12 21.08.10 300 (СЗ) >10 км    3/3 600 м кучево-дожд., средняя 
[Cb calv|Ac trans]
+21.9 +11.3 51 +26  1014.7  0.2  723  267           
15 21.08.10 310 (СЗ) >10 км    8/4 600 м кучево-дожд., средняя 
[Cb calv|Ac trans]
+20.9 +11.8 56 +25  1015.1  0.2  723  268           
18 21.08.10 010 (С) >10 км    4/0 средняя 
[Ac trans]
+15.8 +13.3 85 +23  1018.3  2.2  724  273    +23.2       
21 21.08.10 350 (С) >10 км    8/3 1000 м кучево-дожд., средняя 
[Cb calv|Ac trans]
+15.3 +11.1 76 +19  1018.9  0.4  725  274           
00 22.08.10 100 (В) >10 км    3/0 средняя 
[Ac trans]
+12.5 +8.1 75 +13  1020.1  0.6  725  278           
03 22.08.10 060 (СВ) >10 км    6/3 600 м кучево-дожд., средняя 
[Cb calv|Ac trans]
+11.2 +8 81 +11  1020.2  -0.1  725  279           
06 22.08.10 080 (В) >10 км    ясно 
+17.7 +6.7 48 +18  1019.1  0.1  725  273  +11.2         
09 22.08.10 040 (СВ) >10 км    5/4 600 м средняя 
[Cu hum|Ac trans]
+22.3 +9.5 44 +23  1017.4  -0.8  725  268           
12 22.08.10 310 (СЗ) >10 км    8/5 600 м средняя 
[Cu hum|Ac trans]
+24.3 +8.8 37 +25  1015.8  -1.2  724  266           
15 22.08.10 050 (СВ) >10 км    4/3 600 м средняя 
[Cu hum|Ac trans]
+23.1 +9.7 43 +25  1016  724  267           
18 22.08.10 040 (СВ) >10 км    3/0 средняя 
[Ac trans]
+17.8 +5.8 45 +18  1017.2  0.2  724  273    +24.9       
21 22.08.10 360 (С) >10 км    1/0 средняя 
[Ac trans]
+14.9 +3.2 45 +16  1018  0.3  724  276           
00 23.08.10 040 (СВ) >10 км    ясно 
+14.4 +0.2 38 +15  1017.9  -0.3  724  277           
03 23.08.10 110 (В) >10 км    ясно 
+12.6 +4.3 57 +13  1018  -0.2  724  278           
06 23.08.10 120 (ЮВ) >10 км    ясно 
+20.5 +9 48 +21  1016.6  0.1  724  270  +12.4         
09 23.08.10 110 (В) >10 км    1/1 600 м 
[Cu hum]
+25.5 +8.5 34 +26  1015.3  -0.5  723  265           
12 23.08.10 080 (В) >10 км    3/0 верхняя 
[Ci fib]
+27.5 +8 29 +28  1013  -1.7  722  263           
15 23.08.10 080 (В) >10 км    ясно 
+26 +8.8 34 +26  1012.9  -0.4  722  264           
18 23.08.10 110 (В) >10 км    ясно 
+19.1 +7.3 46 +20  1014.5  0.3  722  271    +28.2       
21 23.08.10 110 (В) >10 км    ясно 
+17.3 +2.7 38 +18  1014.8  -0.1  722  273           
00 24.08.10 120 (ЮВ) >10 км    ясно 
+15.3 +9.5 68 +16  1015.2  0.2  722  274           
03 24.08.10 090 (В) >10 км    ясно 
+14 +11.2 83 +18  1015.3  0.1  722  275           
06 24.08.10 110 (В) >10 км    ясно 
+21.8 +10.5 49 +24  1013.2  -0.7  722  267  +13.8         
09 24.08.10 080 (В) >10 км    1/1 600 м 
[Cu med, cong]
+26.2 +9.3 34 +27  1012.2  -0.2  721  264           
12 24.08.10 100 (В) >10 км    3/0 средняя 
[Ac trans]
+28.5 +9.5 30 +30  1011.2  -0.6  721  261           
15 24.08.10 100 (В) >10 км    3/0 средняя 
[Ac trans]
+27.6 +10.6 35 +30  1010.1  -1.2  720  262           
18 24.08.10 080 (В) >10 км    ясно 
+21.2 +11.1 52 +25  1012  0.8  721  267    +29.2       
21 24.08.10 090 (В) >10 км    ясно 
+18.9 +11.2 61 +24  1012.5  0.1  721  269           
00 25.08.10 130 (ЮВ) >10 км    ясно 
+17.6 +12.8 73 +24  1012.7  721  270           
03 25.08.10 060 (СВ) >10 км    3/0 средняя 
[Ac trans]
+16.5 +14.6 89 +26  1013  0.1  721  271           
06 25.08.10 120 (ЮВ) >10 км    ясно 
+23.6 +15.7 61 +35  1011.1  -0.6  720  264  +16.4         
09 25.08.10 130 (ЮВ) >10 км    1/1 1000 м 
[Cu hum]
+29 +11.8 35 +34  1009.6  -0.6  720  260           
12 25.08.10 120 (ЮВ) >10 км    1/1 1000 м 
[Cu hum]
+30.7 +10.3 28 +33  1008.4  -0.9  719  259           
15 25.08.10 090 (В) >10 км    3/1 1000 м верхняя 
[Cu hum|Ci fib]
+29.3 +10.5 31 +32  1007.9  -0.6  719  260           
18 25.08.10 150 (ЮВ) >10 км    ясно 
+23.5 +11.4 47 +27  1009  719  264    +31.7       
21 25.08.10 170 (Ю) >10 км    ясно 
+20 +11.8 59 +25  1009.4  -0.2  719  267           
00 26.08.10 150 (ЮВ) >10 км    ясно 
+19.9 +11.7 59 +25  1009.1  -0.3  718  268           
03 26.08.10 190 (Ю) >10 км    3/0 средняя 
[Ac trans]
+17.8 +13.2 74 +25  1009.2  -0.2  718  269           
06 26.08.10 020 (С) 77  >10 км    1/0 средняя 
[Ac trans]
+14.4   1006.9  -0.5  718    +17.5         
09 26.08.10 280 (З) >10 км    8/8 900 м кучево-дожд. 
[Cb calv]
+30.2 +12.9 35 +36  1006.4  -0.1  718  258           
12 26.08.10 280 (З) >10 км    6/6 900 м 
[Cu hum]
+31.4 +10.9 28 +35  1005.1  -1.1  717  257           
15 26.08.10 300 (СЗ) >10 км    8/5 600 м кучево-дожд. 
[Cb calv]
+30 +9.9 29 +32  1005.1  -0.2  717  258           
18 26.08.10 310 (СЗ) >10 км  {снег}  6/0 средняя 
[Ac trans]
+25.1 +10.4 40 +28    1.3  718  263    +32.5       
21 26.08.10 280 (З) >10 км    8/3 1000 м кучево-дожд., средняя 
[Cb calv|Ac trans]
+23.3 +10.5 44 +26  1008.3  0.6  718  265           
00 27.08.10 290 (З) >10 км    3/0 средняя 
[Ac trans]
+20.3 +12.1 59 +25  1009.2  0.4  719  267           
03 27.08.10 290 (З) >10 км    3/0 средняя 
[Ac trans]
+17.8 +14.3 80 +27  1010.8  1.1  719  269           
06 27.08.10 310 (СЗ) >10 км    3/0 средняя 
[Ac trans]
+22.4 +15.2 64 +33  1011.4  1.4  720  265  +17.5         
09 27.08.10 320 (СЗ) >10 км    3/3 600 м средняя, верхняя 
[Cu hum|Ac trans|Ci fib]
+26 +14.1 48 +34  1010.9  0.1  720  262           
12 27.08.10 340 (С) >10 км    4/4 1000 м верхняя 
[Cu hum|Ci fib]
+27.8 +12.4 39 +33  1010.9  720  261           
15 27.08.10 340 (С) >10 км    4/0 средняя 
[Ac trans]
+26.6 +9.9 35 +28  1010.9  720  263           
18 27.08.10 330 (СЗ) >10 км    4/0 средняя 
[Ac trans]
+22.5 +8.6 41 +23  1012.6  0.9  721  267    +29.6       
21 27.08.10 350 (С) >10 км    3/3 600 м средняя 
[Sc|Ac trans]
+21.1 +7.6 42 +21  1012.9  721  268           
00 28.08.10 010 (С) 84  0300 м    6/6 50 м средняя 
[Ac trans]
+7.8   1013.5  0.2  721             
03 28.08.10 010 (С) 73  0300 м    4/4 100 м средняя 
[Sc|Ac trans]
+8.1   1013.8  0.1  721             
06 28.08.10 120 (ЮВ) >10 км    6/0 верхняя 
[Ci fib]
+24.3 +8.2 36 +24  1012  -0.5  721  265  +17.1         
09 28.08.10 130 (ЮВ) >10 км    6/0 верхняя 
[Ci fib]
+28.7 +8 27 +29  1010.1  -1.1  720  261           
12 28.08.10 130 (ЮВ) >10 км    5/0 верхняя 
[Ci fib]
+31.2 +8.4 24 +31  1007.9  -1.7  719  259           
15 28.08.10 120 (ЮВ) >10 км    3/0 верхняя 
[Ci fib]
+29.5 +9 28 +30  1007.4  0.7  718  260           
18 28.08.10 150 (ЮВ) >10 км    ясно 
+23.4 +11.5 47 +28  1008.4  -0.1  718  264    +32       
21 28.08.10 130 (ЮВ) >10 км    ясно 
+19.8 +11.7 60 +25  1008.6  -0.3  718  267           
00 29.08.10 180 (Ю) >10 км    ясно 
+20.3 +11 55 +24  1008.5  -0.1  718  267           
03 29.08.10 150 (ЮВ) >10 км    3/0 верхняя 
[Ci fib]
+19.2 +13.4 69 +27  1008.2  -0.4  718  267           
06 29.08.10 160 (Ю) >10 км    3/0 верхняя 
[Ci fib]
+27.6 +14.7 45 +37  1006.2  -0.5  717  259  +19         
09 29.08.10 090 (В) >10 км    ясно 
+33.3 +11.1 26 +37  1004.6  -0.7  717  255           
12 29.08.10 350 (С) >10 км    ясно 
+35.1 +9.7 21 +37  1003.9  -0.4  716  254           
15 29.08.10 110 (В) >10 км    ясно 
+33.2 +11 26 +37  1003.7  -0.5  716  255           
18 29.08.10 150 (ЮВ) >10 км    ясно 
+27 +13 42 +34  1004.7  716  260    +36.1       
21 29.08.10 200 (Ю) >10 км    ясно 
+25.8 +13.6 47 +33  1005.3  0.4  716  261           
00 30.08.10 280 (З) >10 км    ясно 
+25.2 +13.2 47 +32  1005.7  0.3  717  262           
03 30.08.10 270 (З) >10 км    ясно 
+21.6 +12.8 57 +28  1007.2  0.9  717  265           
06 30.08.10 300 (СЗ) >10 км    ясно 
+25.9 +11.8 41 +30  1008.3  1.7  719  262  +21.4         
09 30.08.10 260 (З) >10 км    ясно 
+30.8 +14.4 37 +40  1007.6  0.2  719  257           
12 30.08.10 310 (СЗ) >10 км    ясно 
+32 +13.7 33 +40  1007.4  0.2  719  257           
15 30.08.10 010 (С) >10 км    4/0 средняя 
[Ac trans]
+30.2 +14.4 38 +39  1007.8  719  258           
18 30.08.10 030 (СВ) >10 км    1/0 средняя 
[Ac trans]
+25.4 +14.3 50 +34  1009.1  0.4  719  262    +32.4       
21 30.08.10 030 (СВ) >10 км    8/0 средняя 
[Ac trans]
+23.6 +13.9 54 +31  1009  -0.3  719  264           
00 31.08.10 080 (В) >10 км    1/0 средняя 
[Ac trans]
+19.1 +12.6 66 +26  1009.1  -0.5  718  268           
03 31.08.10 080 (В) >10 км    1/0 средняя 
[Ac trans]
+18.8 +13.1 69 +26  1009.3  0.2  718  268           
06 31.08.10 100 (В) >10 км    ясно 
+25.2 +12.8 46 +31  1008.3  0.1  719  263  +18.4         
09 31.08.10 080 (В) >10 км    ясно 
+31.6 +11.4 29 +36  1006.8  -0.5  718  257           
12 31.08.10 090 (В) >10 км    ясно 
+33.8 +11.4 26 +38  1005.2  -1.1  717  255           
15 31.08.10 100 (В) >10 км    ясно 
+33.1 +12.3 28 +38  1004.1  -1.2  716  255           
18 31.08.10 110 (В) >10 км    ясно 
+28.2 +12.3 37 +34  1004.4  -0.4  716  259    +34.7       
21 31.08.10 100 (В) >10 км    ясно 
+24 +10 41 +26  1004.5  -0.7  716  263           
00 01.09.10 100 (В) >10 км    ясно 
+20.4 +14 67 +29  1004.8  -0.3  715  265           
03 01.09.10 110 (В) >10 км    ясно 
+17.9 +15.1 84 +28  1004.4  -0.7  715  267           
Время (UTC), дата Ветер
(°,м/с) 
Видим.   Явления Облачность Т
(°С)
Тd
(°С)
f(%) Тe
(°С)
Pmin
(гПа)
dP
(гПа)
Po
(мм)
O2
(г/м3)
Тmin Tmax R s Состояние
почвы